User: anonymous   Login
Location: Limerick
(52.6800°N, 8.6400°W)
Time: 08:57:28
(UTC+01:00)
Language:

Sapphire - Orbit

View from above orbital plane
View from above orbital plane
View from above satellite
View from above satellite

Ground track
Ground track

The orbit data is extracted from the following two-line orbital elements,

1 26932U 01043D   17114.79120839 -.00000030 +00000-0 +20475-4 0  9999
2 26932 067.0564 231.2229 0008543 284.6622 075.3532 14.30246534812663
Epoch (UTC): 24 April 2017 18:59:20
Eccentricity: 0.0008543
inclination: 67.0564°
perigee height: 785 km
apogee height: 797 km
right ascension of ascending node: 231.2229°
argument of perigee: 284.6622°
revolutions per day: 14.30246534
mean anomaly at epoch: 75.3532°
orbit number at epoch: 81266

The dashed part of the orbit path shows where the satellite is in the earth's shadow,  

DLR